Tracking 20040 objects as of 19-Nov-2019
Live streaming from Space Station
objects crossing your sky now

DELTA 1 DEB


DELTA 1 DEB is no longer on orbit


NORAD ID: 4053
Int'l Code: 1969-064C
Perigee: N/A
Apogee: N/A
Inclination: N/A
Period: N/A
Semi major axis: N/A
RCS: N/A
Launch date: July 26, 1969
Source: United States (US)
Launch site: AIR FORCE EASTERN TEST RANGE (AFETR)
Decay date: 2016-10-21

Note: This is SATELLITE DEBRIS
aabbcc
Your satellite tracking list
Your tracking list is empty




NASA's NSSDC Master Catalog

Two Line Element Set (TLE):
1 04053U 69064C   16294.97902861  .08617775 -52846-5  70712-4 0  9994
2 04053  30.2473 259.5268 0011576 101.1915 262.9570 16.51348620 56747
Source of the keplerian elements: AFSPC